PITTSFIELD MILLS DAM SUNCOOK RIVER PITTSFIELD, NH: From 07/08/2018 10:00 to 07/22/2018 23:00

Date PRECIPITATION INCREMENT [IN] WATER TEMPERATURE [F] AIR TEMPERATURE [F] POOL ELEVATION [FT] RESERVOIR RELEASE [CFS]
07/22/2018 17:00 -- -- -- -- 12.0
07/22/2018 16:00 0.02 75.0 67.0 474.54 12.0
07/22/2018 15:00 0.03 75.2 66.0 474.54 13.0
07/22/2018 14:00 0.03 75.4 65.0 474.54 12.3
07/22/2018 13:00 0.03 75.4 64.0 474.54 11.0
07/22/2018 12:00 0.00 75.4 63.0 474.53 12.0
07/22/2018 11:00 0.02 75.0 63.0 474.54 10.5
07/22/2018 10:00 0.00 74.8 63.0 474.54 11.0
07/22/2018 09:00 0.00 74.7 63.0 474.53 10.0
07/22/2018 08:00 0.00 74.5 62.0 474.53 10.3
07/22/2018 07:00 0.00 74.3 62.0 474.53 10.5
07/22/2018 06:00 0.00 74.3 62.0 474.53 10.3
07/22/2018 05:00 0.00 73.9 61.0 474.53 10.0
07/22/2018 04:00 0.00 73.9 60.0 474.53 10.0
07/22/2018 03:00 0.00 73.8 59.0 474.53 10.0
07/22/2018 02:00 0.00 73.8 59.0 474.53 10.0
07/22/2018 01:00 0.00 73.6 58.0 474.53 10.0
07/22/2018 00:00 0.00 73.8 59.0 474.53 10.0
07/21/2018 23:00 0.00 73.9 63.0 474.53 10.0
07/21/2018 22:00 0.00 74.5 65.0 474.53 10.8
07/21/2018 21:00 0.00 74.8 69.0 474.53 10.8
07/21/2018 20:00 0.00 74.7 72.0 474.53 11.3
07/21/2018 19:00 0.00 74.7 77.0 474.53 11.8
07/21/2018 18:00 0.00 74.5 77.0 474.54 11.5
07/21/2018 17:00 0.00 74.7 78.0 474.54 12.0
07/21/2018 16:00 0.00 74.1 77.0 474.54 12.0
07/21/2018 15:00 0.00 73.9 77.0 474.54 11.8
07/21/2018 14:00 0.00 74.1 77.0 474.54 12.3
07/21/2018 13:00 0.00 73.9 75.0 474.54 11.8
07/21/2018 12:00 0.00 74.1 72.0 474.54 12.0
07/21/2018 11:00 0.00 74.1 69.0 474.54 12.0
07/21/2018 10:00 0.00 74.1 62.0 474.54 12.3
07/21/2018 09:00 0.00 74.1 58.0 474.54 12.0
07/21/2018 08:00 0.00 74.3 56.0 474.54 12.0
07/21/2018 07:00 0.00 74.3 54.0 474.54 12.3
07/21/2018 06:00 0.00 74.1 55.0 474.54 12.0
07/21/2018 05:00 0.00 74.1 56.0 474.54 12.5
07/21/2018 04:00 0.00 73.9 57.0 474.54 12.8
07/21/2018 03:00 0.00 73.8 58.0 474.54 13.0
07/21/2018 02:00 0.00 73.6 60.0 474.54 13.0
07/21/2018 01:00 0.00 73.4 61.0 474.54 13.0
07/21/2018 00:00 0.00 73.6 63.0 474.55 13.8
07/20/2018 23:00 0.00 73.9 67.0 474.54 13.3
07/20/2018 22:00 0.00 74.5 70.0 474.54 14.0
07/20/2018 21:00 0.00 74.7 74.0 474.55 14.3
07/20/2018 20:00 0.00 74.7 80.0 474.55 14.0
07/20/2018 19:00 0.00 74.5 83.0 474.55 14.5
07/20/2018 18:00 0.00 74.1 84.0 474.55 15.3
07/20/2018 17:00 0.00 74.7 84.0 474.56 15.3
07/20/2018 16:00 0.00 74.1 84.0 474.55 15.0
07/20/2018 15:00 0.00 74.5 83.0 474.56 15.3
07/20/2018 14:00 0.00 74.5 80.0 474.55 15.8
07/20/2018 13:00 0.00 74.5 81.0 474.56 16.0
07/20/2018 12:00 0.00 74.5 76.0 474.56 16.5
07/20/2018 11:00 0.00 74.5 74.0 474.56 17.0
07/20/2018 10:00 0.00 74.5 66.0 474.56 17.0
07/20/2018 09:00 0.00 74.5 59.0 474.56 17.0
07/20/2018 08:00 0.00 74.7 54.0 474.56 17.0
07/20/2018 07:00 0.00 74.5 53.0 474.56 17.3
07/20/2018 06:00 0.00 74.3 53.0 474.56 18.0
07/20/2018 05:00 0.00 74.3 54.0 474.56 18.0
07/20/2018 04:00 0.00 74.3 55.0 474.56 18.0
07/20/2018 03:00 0.00 74.3 56.0 474.57 18.0
07/20/2018 02:00 0.00 74.7 57.0 474.57 18.0
07/20/2018 01:00 0.00 74.5 59.0 474.57 18.0
07/20/2018 00:00 0.00 74.7 60.0 474.57 18.5
07/19/2018 23:00 0.00 74.7 63.0 474.57 19.0
07/19/2018 22:00 0.00 74.7 67.0 474.57 20.0
07/19/2018 21:00 0.00 74.7 75.0 474.57 20.3
07/19/2018 20:00 0.00 74.7 81.0 474.58 20.8
07/19/2018 19:00 0.00 74.8 80.0 474.58 21.3
07/19/2018 18:00 0.00 74.7 80.0 474.58 22.3
07/19/2018 17:00 0.00 74.8 78.0 474.58 22.5
07/19/2018 16:00 0.00 75.0 77.0 474.59 23.8
07/19/2018 15:00 0.00 74.8 77.0 474.59 24.5
07/19/2018 14:00 0.00 74.8 74.0 474.59 24.8
07/19/2018 13:00 0.00 74.8 74.0 474.59 25.8
07/19/2018 12:00 0.00 74.8 72.0 474.60 26.5
07/19/2018 11:00 0.00 74.8 70.0 474.60 27.0
07/19/2018 10:00 0.00 74.8 64.0 474.60 28.0
07/19/2018 09:00 0.00 75.0 56.0 474.61 29.0
07/19/2018 08:00 0.00 75.0 50.0 474.61 29.8
07/19/2018 07:00 0.00 75.2 49.0 474.61 30.5
07/19/2018 06:00 0.00 75.0 49.0 474.61 31.8
07/19/2018 05:00 0.00 74.8 50.0 474.62 32.8
07/19/2018 04:00 0.00 74.8 52.0 474.62 34.0
07/19/2018 03:00 0.00 75.2 53.0 474.63 35.0
07/19/2018 02:00 0.00 75.0 54.0 474.63 36.0
07/19/2018 01:00 0.00 75.2 56.0 474.63 36.5
07/19/2018 00:00 0.00 75.0 57.0 474.63 37.5
07/18/2018 23:00 0.00 75.0 60.0 474.64 38.5
07/18/2018 22:00 0.00 75.0 65.0 474.64 39.5
07/18/2018 21:00 0.00 75.0 71.0 474.64 40.8
07/18/2018 20:00 0.00 74.8 75.0 474.65 42.0
07/18/2018 19:00 0.00 74.8 76.0 474.64 42.5
07/18/2018 18:00 0.00 74.5 75.0 474.66 44.3
07/18/2018 17:00 0.00 74.3 74.0 474.65 44.8
07/18/2018 16:00 0.00 74.5 74.0 474.66 45.0
07/18/2018 15:00 0.00 74.5 72.0 474.65 45.3
07/18/2018 14:00 0.00 73.9 71.0 474.66 47.0
07/18/2018 13:00 0.00 74.3 71.0 474.66 46.0
07/18/2018 12:00 0.00 74.1 68.0 474.66 46.0
07/18/2018 11:00 0.00 74.3 67.0 474.66 46.8
07/18/2018 10:00 0.00 74.3 66.0 474.66 46.5
07/18/2018 09:00 0.00 74.3 64.0 474.66 46.8
07/18/2018 08:00 0.00 74.3 63.0 474.66 47.0
07/18/2018 07:00 0.00 74.5 63.0 474.66 47.0
07/18/2018 06:00 0.00 74.5 66.0 474.66 47.0
07/18/2018 05:00 0.00 74.5 67.0 474.67 47.3
07/18/2018 04:00 0.00 74.3 68.0 474.66 46.8
07/18/2018 03:00 0.00 74.3 68.0 474.66 46.3
07/18/2018 02:00 0.00 74.5 69.0 474.66 45.8
07/18/2018 01:00 0.00 74.3 69.0 474.66 44.8
07/18/2018 00:00 0.01 74.3 69.0 474.66 45.3
07/17/2018 23:00 0.18 74.5 69.0 474.66 43.8
07/17/2018 22:00 0.19 74.7 69.0 474.64 37.0
07/17/2018 21:00 0.00 74.5 69.0 474.63 35.8
07/17/2018 20:00 0.02 74.5 69.0 474.63 34.8
07/17/2018 19:00 0.09 74.7 69.0 474.62 31.5
07/17/2018 18:00 0.06 74.7 69.0 474.61 27.3
07/17/2018 17:00 0.01 74.7 69.0 474.59 24.3
07/17/2018 16:00 0.05 74.1 69.0 474.58 21.3
07/17/2018 15:00 0.13 74.7 69.0 474.57 18.3
07/17/2018 14:00 0.12 74.1 71.0 474.56 17.3
07/17/2018 13:00 0.34 74.3 73.0 474.56 11.8
07/17/2018 12:00 0.00 74.3 79.0 474.52 8.8
07/17/2018 11:00 0.00 74.3 79.0 474.52 9.0
07/17/2018 10:00 0.00 74.3 78.0 474.52 9.0
07/17/2018 09:00 0.00 74.3 77.7 474.52 9.0
07/17/2018 08:00 0.00 74.4 77.5 474.52 9.0
07/17/2018 07:00 0.00 74.4 77.2 474.52 9.0
07/17/2018 06:00 0.00 74.4 76.9 474.52 9.0
07/17/2018 05:00 0.00 74.5 76.6 474.52 9.0
07/17/2018 04:00 0.00 74.5 76.4 474.52 9.0
07/17/2018 03:00 0.00 74.6 76.1 474.52 9.0
07/17/2018 02:00 0.00 74.6 75.8 474.52 9.0
07/17/2018 01:00 0.00 74.6 75.5 474.52 9.0
07/17/2018 00:00 0.00 74.7 75.3 474.52 9.0
07/16/2018 23:00 0.00 74.7 75.0 474.52 8.5
07/16/2018 22:00 0.00 74.7 76.0 474.52 8.5
07/16/2018 21:00 0.00 74.7 80.0 474.52 8.8
07/16/2018 20:00 0.00 74.7 84.0 474.52 9.3
07/16/2018 19:00 0.00 74.8 85.0 474.52 8.5
07/16/2018 18:00 0.00 74.3 84.0 474.53 9.3
07/16/2018 17:00 0.00 74.7 86.0 474.52 9.0
07/16/2018 16:00 0.00 74.5 86.0 474.52 9.0
07/16/2018 15:00 0.00 74.5 86.0 474.52 9.3
07/16/2018 14:00 0.00 74.3 85.0 474.52 9.0
07/16/2018 13:00 0.00 74.3 83.0 474.52 9.0
07/16/2018 12:00 0.00 74.5 79.0 474.52 9.3
07/16/2018 11:00 0.00 74.3 74.0 474.52 9.0
07/16/2018 10:00 0.00 74.5 70.0 474.52 9.3
07/16/2018 09:00 0.00 74.5 68.0 474.52 9.5
07/16/2018 08:00 0.00 74.5 68.0 474.52 9.3
07/16/2018 07:00 0.00 74.5 68.0 474.52 9.3
07/16/2018 06:00 0.00 74.3 67.0 474.52 9.3
07/16/2018 05:00 0.00 74.5 67.0 474.52 9.5
07/16/2018 04:00 0.00 74.3 67.0 474.52 9.0
07/16/2018 03:00 0.00 74.5 67.0 474.52 9.3
07/16/2018 02:00 0.00 74.3 67.0 474.52 9.8
07/16/2018 01:00 0.00 74.7 68.0 474.53 10.0
07/16/2018 00:00 0.00 74.7 69.0 474.53 10.0
07/15/2018 23:00 0.00 75.0 70.0 474.53 10.0
07/15/2018 22:00 0.00 74.8 73.0 474.53 10.0
07/15/2018 21:00 0.00 74.7 76.0 474.53 10.8
07/15/2018 20:00 0.00 74.5 81.0 474.53 11.5
07/15/2018 19:00 0.00 74.8 83.0 474.54 12.0
07/15/2018 18:00 0.00 74.5 82.0 474.54 13.5
07/15/2018 17:00 0.48 74.3 76.0 474.55 15.8
07/15/2018 16:00 0.00 74.7 84.0 474.52 7.3
07/15/2018 15:00 0.00 74.5 81.0 474.51 7.3
07/15/2018 14:00 0.00 74.7 80.0 474.51 7.0
07/15/2018 13:00 0.00 74.5 76.0 474.51 7.0
07/15/2018 12:00 0.00 74.5 72.0 474.51 7.0
07/15/2018 11:00 0.00 74.5 68.0 474.51 7.0
07/15/2018 10:00 0.00 74.5 67.0 474.51 7.0
07/15/2018 09:00 0.00 74.5 65.0 474.51 7.0
07/15/2018 08:00 0.00 74.3 63.0 474.52 7.5
07/15/2018 07:00 0.00 74.5 63.0 474.52 8.0
07/15/2018 06:00 0.03 74.5 62.0 474.52 8.0
07/15/2018 05:00 0.07 74.5 63.0 474.52 7.0
07/15/2018 04:00 0.00 74.5 64.0 474.51 6.3
07/15/2018 03:00 0.00 74.8 64.0 474.51 6.5
07/15/2018 02:00 0.00 74.8 65.0 474.51 6.3
07/15/2018 01:00 0.00 74.8 65.0 474.51 6.3
07/15/2018 00:00 0.00 74.8 66.0 474.51 6.3
07/14/2018 23:00 0.00 75.0 67.0 474.51 6.0
07/14/2018 22:00 0.00 75.0 68.0 474.51 6.0
07/14/2018 21:00 0.00 75.0 69.0 474.51 6.0
07/14/2018 20:00 0.00 74.8 72.0 474.51 6.0
07/14/2018 19:00 0.00 75.0 72.0 474.51 6.0
07/14/2018 18:00 0.00 74.7 76.0 474.51 6.5
07/14/2018 17:00 0.00 74.7 76.0 474.51 6.3
07/14/2018 16:00 0.00 74.7 76.0 474.51 6.3
07/14/2018 15:00 0.00 74.8 75.0 474.51 6.8
07/14/2018 14:00 0.00 74.8 73.0 474.51 7.3
07/14/2018 13:00 0.00 74.8 71.0 474.51 7.3
07/14/2018 12:00 0.00 74.8 71.0 474.51 6.8
07/14/2018 11:00 0.00 74.8 69.0 474.51 7.0
07/14/2018 10:00 0.00 74.7 67.0 474.51 6.5
07/14/2018 09:00 0.00 75.2 63.0 474.51 7.0
07/14/2018 08:00 0.00 75.2 61.0 474.51 6.8
07/14/2018 07:00 0.00 75.2 60.0 474.51 7.0
07/14/2018 06:00 0.00 75.0 59.0 474.51 7.0
07/14/2018 05:00 0.00 75.0 60.0 474.51 7.0
07/14/2018 04:00 0.00 74.8 59.0 474.51 7.0
07/14/2018 03:00 0.00 74.5 60.0 474.51 7.0
07/14/2018 02:00 0.00 73.9 60.0 474.51 7.0
07/14/2018 01:00 0.00 73.9 62.0 474.51 7.0
07/14/2018 00:00 0.00 74.3 63.0 474.51 7.0
07/13/2018 23:00 0.00 74.5 65.0 474.51 7.0
07/13/2018 22:00 0.00 75.2 67.0 474.51 6.5
07/13/2018 21:00 0.00 76.3 70.0 474.51 6.5
07/13/2018 20:00 0.00 75.9 74.0 474.51 6.3
07/13/2018 19:00 0.00 75.7 76.0 474.52 8.0
07/13/2018 18:00 0.00 75.6 78.0 474.51 6.8
07/13/2018 17:00 0.00 74.5 81.0 474.51 6.8
07/13/2018 16:00 0.00 75.2 81.0 474.52 7.3
07/13/2018 15:00 0.00 74.5 81.0 474.51 7.0
07/13/2018 14:00 0.00 75.6 78.0 474.52 7.8
07/13/2018 13:00 0.00 75.2 77.0 474.52 7.8
07/13/2018 12:00 0.00 74.8 73.0 474.52 7.8
07/13/2018 11:00 0.00 74.7 70.0 474.52 8.0
07/13/2018 10:00 0.00 75.9 67.0 474.52 8.0
07/13/2018 09:00 0.00 75.2 62.0 474.52 8.0
07/13/2018 08:00 0.00 75.2 57.0 474.52 8.0
07/13/2018 07:00 0.00 75.2 54.0 474.52 8.0
07/13/2018 06:00 0.00 75.4 54.0 474.52 8.0
07/13/2018 05:00 0.00 75.2 55.0 474.52 8.0
07/13/2018 04:00 0.00 75.2 56.0 474.52 8.0
07/13/2018 03:00 0.00 75.0 58.0 474.52 8.0
07/13/2018 02:00 0.00 74.7 60.0 474.52 8.0
07/13/2018 01:00 0.00 74.8 62.0 474.52 8.0
07/13/2018 00:00 0.00 74.8 67.0 474.52 8.0
07/12/2018 23:00 0.00 75.0 68.0 474.52 8.0
07/12/2018 22:00 0.00 75.2 70.0 474.52 8.0
07/12/2018 21:00 0.00 75.0 73.0 474.52 8.0
07/12/2018 20:00 0.00 74.8 77.0 474.52 7.8
07/12/2018 19:00 0.00 74.8 78.0 474.52 8.0
07/12/2018 18:00 0.00 74.3 81.0 474.52 8.0
07/12/2018 17:00 0.00 74.3 79.0 474.52 8.0
07/12/2018 16:00 0.00 74.1 79.0 474.52 8.0
07/12/2018 15:00 0.00 74.8 77.0 474.52 8.0
07/12/2018 14:00 0.00 75.2 76.0 474.52 8.0
07/12/2018 13:00 0.00 75.6 76.0 474.52 8.0
07/12/2018 12:00 0.00 75.2 75.0 474.52 8.3
07/12/2018 11:00 0.00 74.8 72.0 474.52 8.3
07/12/2018 10:00 0.00 74.7 68.0 474.52 8.0
07/12/2018 09:00 0.00 74.8 59.0 474.52 8.0
07/12/2018 08:00 0.00 74.8 53.0 474.52 8.0
07/12/2018 07:00 0.00 75.0 51.0 474.52 8.3
07/12/2018 06:00 0.00 74.8 52.0 474.52 8.5
07/12/2018 05:00 0.00 75.0 53.0 474.52 8.8
07/12/2018 04:00 0.00 75.2 54.0 474.52 8.3
07/12/2018 03:00 0.00 75.0 56.0 474.52 8.3
07/12/2018 02:00 0.00 75.0 57.0 474.52 8.8
07/12/2018 01:00 0.00 75.0 60.0 474.52 8.8
07/12/2018 00:00 0.00 74.8 62.0 474.52 8.8
07/11/2018 23:00 0.00 75.0 66.0 474.52 8.8
07/11/2018 22:00 0.00 74.7 70.0 474.52 9.0
07/11/2018 21:00 0.00 74.8 74.0 474.52 9.0
07/11/2018 20:00 0.00 74.8 79.0 474.52 9.0
07/11/2018 19:00 0.00 74.5 81.0 474.52 9.0
07/11/2018 18:00 0.00 73.9 78.0 474.52 9.5
07/11/2018 17:00 0.00 73.6 77.0 474.52 8.8
07/11/2018 16:00 0.00 74.8 77.0 474.52 9.5
07/11/2018 15:00 0.00 74.7 75.0 474.52 10.3
07/11/2018 14:00 0.00 75.7 75.0 474.53 10.0
07/11/2018 13:00 0.00 75.2 75.0 474.53 10.0
07/11/2018 12:00 0.00 74.5 73.0 474.53 10.3
07/11/2018 11:00 0.00 74.8 71.0 474.53 10.0
07/11/2018 10:00 0.00 74.7 68.0 474.53 10.0
07/11/2018 09:00 0.00 74.5 64.0 474.53 10.3
07/11/2018 08:00 0.00 74.5 62.0 474.53 10.5
07/11/2018 07:00 0.01 74.5 62.0 474.53 10.0
07/11/2018 06:00 0.00 74.5 62.0 474.53 10.8
07/11/2018 05:00 0.00 74.5 64.0 474.53 10.8
07/11/2018 04:00 0.00 74.7 64.0 474.53 11.0
07/11/2018 03:00 0.00 75.2 64.0 474.53 11.0
07/11/2018 02:00 0.00 75.2 65.0 474.53 11.3
07/11/2018 01:00 0.00 75.2 66.0 474.54 12.0
07/11/2018 00:00 0.00 74.8 67.0 474.54 12.0
07/10/2018 23:00 0.00 75.6 66.0 474.54 12.0
07/10/2018 22:00 0.01 74.7 68.0 474.54 12.8
07/10/2018 21:00 0.00 74.8 68.0 474.55 14.5
07/10/2018 20:00 0.29 75.0 68.0 474.55 15.3
07/10/2018 19:00 0.00 74.8 84.0 474.53 10.3
07/10/2018 18:00 0.00 74.5 88.0 474.52 10.0
07/10/2018 17:00 0.00 73.9 89.0 474.53 10.5
07/10/2018 16:00 0.00 74.3 88.0 474.53 10.0
07/10/2018 15:00 0.00 73.9 88.0 474.53 10.3
07/10/2018 14:00 0.00 73.8 86.0 474.53 11.0
07/10/2018 13:00 0.00 74.3 84.0 474.53 10.5
07/10/2018 12:00 0.00 73.9 80.0 474.53 11.3
07/10/2018 11:00 0.00 73.9 80.0 474.53 11.5
07/10/2018 10:00 0.00 74.1 74.0 474.53 11.3
07/10/2018 09:00 0.00 74.3 67.0 474.54 12.0
07/10/2018 08:00 0.00 74.3 60.0 474.53 11.8
07/10/2018 07:00 0.00 74.1 57.0 474.54 12.0
07/10/2018 06:00 0.00 74.5 58.0 474.54 12.0
07/10/2018 05:00 0.00 74.5 59.0 474.54 12.0
07/10/2018 04:00 0.00 74.5 60.0 474.54 12.0
07/10/2018 03:00 0.00 74.5 62.0 474.54 12.0
07/10/2018 02:00 0.00 74.8 63.0 474.54 12.0
07/10/2018 01:00 0.00 74.7 65.0 474.54 12.0
07/10/2018 00:00 0.00 74.5 67.0 474.54 12.0
07/09/2018 23:00 0.00 75.0 70.0 474.54 12.0
07/09/2018 22:00 0.00 74.5 75.0 474.54 12.0
07/09/2018 21:00 0.00 74.3 85.0 474.54 12.0
07/09/2018 20:00 0.00 74.3 89.0 474.54 12.0
07/09/2018 19:00 0.00 74.3 89.0 474.54 12.0
07/09/2018 18:00 0.00 74.5 90.0 474.54 12.3
07/09/2018 17:00 0.00 74.3 88.0 474.54 12.8
07/09/2018 16:00 0.00 73.9 88.0 474.54 12.8
07/09/2018 15:00 0.00 73.6 86.0 474.54 12.3
07/09/2018 14:00 0.00 73.2 85.0 474.54 12.5
07/09/2018 13:00 0.00 74.1 81.0 474.54 12.8
07/09/2018 12:00 0.00 73.2 79.0 474.54 13.0
07/09/2018 11:00 0.00 73.8 75.0 474.54 13.0
07/09/2018 10:00 0.00 73.8 70.0 474.54 13.5
07/09/2018 09:00 0.00 73.8 64.0 474.55 13.3
07/09/2018 08:00 0.00 74.1 57.0 474.54 13.5
07/09/2018 07:00 0.00 74.1 55.0 474.55 14.0
07/09/2018 06:00 0.00 74.3 56.0 474.55 14.0
07/09/2018 05:00 0.00 74.3 56.0 474.55 14.0
07/09/2018 04:00 0.00 74.1 58.0 474.55 14.0
07/09/2018 03:00 0.00 74.3 59.0 474.55 14.0
07/09/2018 02:00 0.00 74.7 61.0 474.55 14.0
07/09/2018 01:00 0.00 74.5 63.0 474.55 14.3
07/09/2018 00:00 0.00 74.1 64.0 474.55 14.8
07/08/2018 23:00 0.00 74.7 67.0 474.55 15.0
07/08/2018 22:00 0.00 73.8 72.0 474.55 15.0
07/08/2018 21:00 0.00 74.5 80.0 474.55 15.0
07/08/2018 20:00 0.00 74.1 82.0 474.55 15.0
07/08/2018 19:00 0.00 73.6 84.0 474.55 15.0
07/08/2018 18:00 0.00 74.1 84.0 474.55 15.0
07/08/2018 17:00 0.00 74.1 84.0 474.55 15.3
07/08/2018 16:00 -- -- -- -- --
07/08/2018 15:00 -- -- -- -- --
07/08/2018 14:00 -- -- -- -- --
07/08/2018 13:00 -- -- -- -- --
07/08/2018 12:00 -- -- -- -- --
07/08/2018 11:00 -- -- -- -- --
07/08/2018 10:00 -- -- -- -- --